Hourly Weather Roundup
Issued by NWS Central Illinois

Home | Current Version | Previous Version | Text Only | Print | Product List | Glossary On
Versions: 1 2 3 4 5 6 7 8 9 10 11 12 13 14 15 16 17 18 19 20 21 22 23 24 25 26 27 28 29 30 31 32 33 34 35 36 37 38 39 40 41 42 43 44 45 46 47 48 49 50
000
NZUS43 KILX 202310
HWRILX

AREA WEATHER ROUNDUP
NATIONAL WEATHER SERVICE, LINCOLN IL
500 PM CST SAT DEC 20 2014


CITY           SKY/WX    TMP DP  RH WIND       PRES   REMARKS
BLOOMINGTON    MOCLDY    30  28  93 S6        30.25S WCI  24
CHAMPAIGN      CLOUDY    32  27  81 SE6       30.26S WCI  26
DECATUR        CLOUDY    34  28  79 SE6       30.26S WCI  29
FLORA          CLEAR     33  29  85 SE3       30.28S
GALESBURG      CLOUDY    34  30  86 SE3       30.21S
JACKSONVILLE   CLOUDY    40  34  80 S3        30.23R
LACON          CLOUDY    32  27  80 SE3       30.24S
LAWRENCEVILLE  MOCLDY    34  28  79 E3        30.29S
LITCHFIELD     CLOUDY    37  31  81 SE6       30.24S WCI  32
$$


CITY           SKY/WX    TMP DP  RH WIND       PRES   REMARKS
LINCOLN        CLOUDY    35  30  82 SE6       30.26R WCI  30
MACOMB         CLOUDY    35  32  91 SE7       30.24R FOG     WCI  29
MATTOON        CLOUDY    33  26  75 SE3       30.26R
MT CARMEL AP   PTCLDY    36  30  80 E3        30.29R
OLNEY-NOBLE AP CLEAR     32  27  80 CALM      30.28S
PARIS          CLOUDY    33  30  89 CALM      30.29R
PEORIA         CLOUDY    35  27  72 SE6       30.24R WCI  30
PONTIAC        CLOUDY    33  30  88 S3        30.26S
RANTOUL        CLOUDY    34  29  83 S3        30.26S
ROBINSON       CLOUDY    34  27  76 E3        30.30S
SPRINGFIELD    CLOUDY    38  31  76 SE8       30.24S WCI  32
TAYLORVILLE    CLOUDY    36  32  87 SE6       30.25S WCI  31
$$

...REGIONAL REPORTS...


CITY           SKY/WX    TMP DP  RH WIND       PRES   REMARKS
CHICAGO O`HARE FLURRIES  32  24  72 SW5       30.25R WCI  27
KANKAKEE       CLOUDY    32  28  84 S3        30.28R
MOLINE         CLOUDY    34  28  79 SE5       30.21R HAZE    WCI  30
MOUNT VERNON   CLOUDY    37  27  65 E3        30.27S
PITTSFIELD     CLOUDY    37  34  89 CALM      30.23S
QUINCY         CLOUDY    36  33  89 SE6       30.20S FOG     WCI  31
ROCKFORD       CLOUDY    31  25  78 SE6       30.25S WCI  25
$$


CITY           SKY/WX    TMP DP  RH WIND       PRES   REMARKS
BURLINGTON     CLOUDY    35  33  92 SE6       30.19S FOG     WCI  30
CEDAR RAPIDS   FOG       31  31 100 SE6       30.17R VSB 3/4 WCI  25
DES MOINES     DRIZZLE   36  33  89 SE8       30.13S FOG     WCI  30
KIRKSVILLE     CLOUDY    37  36  96 SW7       30.17R WCI  32
OTTUMWA        CLOUDY    35  33  92 SE6       30.16R FOG     WCI  30
ST LOUIS       CLOUDY    42  33  70 SE6       30.23S
$$


CITY           SKY/WX    TMP DP  RH WIND       PRES   REMARKS
TERRE HAUTE    CLOUDY    32  26  78 SE5       30.28S WCI  27
EVANSVILLE     CLEAR     35  26  69 CALM      30.29S
INDIANAPOLIS   CLOUDY    31  23  72 S3        30.26S
LAFAYETTE      CLOUDY    31  25  78 CALM      30.28R
MADISON        FLURRIES  30  26  85 S7        30.21S WCI  23
MILWAUKEE      FLURRIES  31  23  72 W3        30.24S
$$





USA.gov is the U.S. government's official web portal to all federal, state and local government web resources and services.